Nassau, Bahamas

6:26 PM EDT on March 28, 2017 (GMT -0400)
Nassau

Weather History for 78073 - October, 2012

Change the Weather History Date:

Saturday, October 13, 2012

  Actual Average Record
Temperature  
Mean Temperature 82 °F -  
Max Temperature 86 °F 84 °F - ()
Min Temperature 77 °F 70 °F - ()
Cooling Degree Days 16    
Growing Degree Days 32 (Base 50)    
Moisture  
Dew Point 71 °F    
Average Humidity 70    
Maximum Humidity 84    
Minimum Humidity 54    
Precipitation  
Precipitation 0.20 in 0.16 in - ()
Sea Level Pressure  
Sea Level Pressure 29.99 in    
Wind  
Wind Speed 14 mph ()    
Max Wind Speed 26 mph    
Max Gust Speed -    
Visibility 6.7 miles    
Events Rain    
T = Trace of Precipitation, MM = Missing Value Source: Averaged Metar Reports

Daily Weather History Graph

Daily Weather History Graph

Search for Another Location

Airport or City:

Trip Planner

Search our weather history database for the weather conditions in past years. The results will help you decide how hot, cold, wet, or windy it might be!

Date:

Astronomy

Oct. 13, 2012 Rise Set
Actual Time 7:07 AM EDT 6:44 PM EDT
Civil Twilight 6:44 AM EDT 7:07 PM EDT
Nautical Twilight 6:17 AM EDT 7:33 PM EDT
Astronomical Twilight 5:51 AM EDT 8:00 PM EDT
Moon 5:04 AM EDT (10/13) 5:20 PM EDT (10/13)
Length of Visible Light 12h 22m
Length of Day
11h 36m
Waning Crescent, 5% of the Moon is Illuminated
Oct 13
Waning Crescent
Oct 15
New
Oct 21
First Quarter
Oct 29
Full
Nov 6
Last Quarter

Hourly Weather History & Observations

Time (EDT) Temp. Heat Index Dew Point Humidity Pressure Visibility Wind Dir Wind Speed Gust Speed Precip Events Conditions
12:00 AM 80.6 °F 83.2 °F 68.0 °F 65% 30.03 in 6.2 mi NNE 10.4 mph - N/A   Scattered Clouds
1:00 AM 80.6 °F 83.2 °F 68.0 °F 65% 30.01 in 6.2 mi NNE 12.7 mph - N/A   Scattered Clouds
2:00 AM 80.6 °F 83.2 °F 68.0 °F 65% 30.00 in 6.2 mi NE 11.5 mph - N/A   Scattered Clouds
3:00 AM 80.6 °F 86.2 °F 75.2 °F 84% 29.99 in 6.2 mi NNE 12.7 mph - N/A   Scattered Clouds
4:00 AM 80.6 °F 86.2 °F 75.2 °F 84% 29.99 in 6.2 mi NE 12.7 mph - N/A   Scattered Clouds
5:00 AM 80 °F - 69 °F 63% 29.98 in 9 mi NNE 16.1 mph - -   Partly Cloudy
5:00 AM 80.6 °F 83.9 °F 69.8 °F 70% 29.98 in 6.2 mi NE 16.1 mph - N/A   Scattered Clouds
6:00 AM 80.6 °F 82.7 °F 66.2 °F 61% 29.98 in 6.2 mi North 16.1 mph - N/A   Scattered Clouds
7:00 AM 80.6 °F 83.2 °F 68.0 °F 65% 30.00 in 6.2 mi NNE 16.1 mph - N/A   Scattered Clouds
8:00 AM 81 °F - 67 °F 54% 30.01 in 9 mi NE 17.3 mph - -   Mostly Cloudy
8:00 AM 80.6 °F 83.2 °F 68.0 °F 65% 30.01 in 6.2 mi NE 17.3 mph - N/A   Mostly Cloudy
9:00 AM 80.6 °F 83.9 °F 69.8 °F 70% 30.02 in 6.2 mi NE 15.0 mph - N/A   Mostly Cloudy
10:00 AM 80.6 °F 83.9 °F 69.8 °F 70% 30.03 in 6.2 mi NNE 16.1 mph - N/A   Mostly Cloudy
11:00 AM 85 °F - 74 °F 61% 30.03 in 9 mi NNE 15.0 mph - -   Mostly Cloudy
11:00 AM 84.2 °F 90.9 °F 73.4 °F 70% 30.03 in 6.2 mi NNE 15.0 mph - N/A   Mostly Cloudy
12:00 PM 82.4 °F 87.2 °F 71.6 °F 70% 30.03 in 6.2 mi NE 17.3 mph - N/A   Mostly Cloudy
1:00 PM 84.2 °F 89.6 °F 71.6 °F 66% 30.01 in 6.2 mi NE 17.3 mph - N/A   Scattered Clouds
2:00 PM 85 °F - 74 °F 61% 29.98 in 9 mi NE 18.4 mph - -   Partly Cloudy
2:00 PM 84.2 °F 90.9 °F 73.4 °F 70% 29.98 in 6.2 mi NE 18.4 mph - N/A   Mostly Cloudy
3:00 PM 82.4 °F 86.3 °F 69.8 °F 66% 29.97 in 6.2 mi NNE 17.3 mph - N/A   Mostly Cloudy
4:00 PM 80.6 °F 84.6 °F 71.6 °F 74% 29.96 in 6.2 mi NNE 19.6 mph - N/A   Mostly Cloudy
5:00 PM 84 °F - 74 °F 64% 29.96 in 9 mi NE 23.0 mph - -   Partly Cloudy
5:00 PM 84.2 °F 90.9 °F 73.4 °F 70% 29.96 in 6.2 mi NE 23.0 mph - N/A   Mostly Cloudy
6:00 PM 80.6 °F 83.9 °F 69.8 °F 70% 29.96 in 6.2 mi NE 26.5 mph - N/A   Mostly Cloudy
7:00 PM 80.6 °F 84.6 °F 71.6 °F 74% 29.97 in 6.2 mi NNE 20.7 mph - N/A   Mostly Cloudy
8:00 PM 82 °F - 73 °F 68% 29.99 in 9 mi NE 18.4 mph - -   Mostly Cloudy
8:00 PM 82.4 °F 88.2 °F 73.4 °F 74% 29.98 in 6.2 mi NE 18.4 mph - N/A   Mostly Cloudy
9:00 PM 80.6 °F 83.9 °F 69.8 °F 70% 29.99 in 6.2 mi NE 17.3 mph - N/A   Mostly Cloudy
10:00 PM 77.0 °F - 71.6 °F 83% 29.98 in 6.2 mi NE 17.3 mph - N/A Rain Rain Showers
11:00 PM 80 °F - 76 °F 82% 30.00 in 6 mi NNE 16.1 mph - - Rain Light Rain Showers
11:00 PM 80.6 °F 86.2 °F 75.2 °F 84% 30.00 in 5.6 mi NNE 16.1 mph - N/A Rain Light Rain Showers